When you browse on this site, cookies collect data to enhance your experience and personalize the content and advertising you see.
Visit our Privacy Policy to learn more. By continuing to use the site, you agree to this use of cookies and data.
  • In United Kingdom
  • List of Countries
  • For 7 days
  • Water Temperature
  • Weather Map
  • Weather Widgets
  • user-avatar
    Login

    Hourly Weather Balod

    Today, 22 January, Wednesday

    Time Temperature Precipitation Wind Pressure Humidity
    00:00 +20°C° 0 mm 1 mps 735 mmHg 66%
    01:00 +18°C° 0 mm 0 mps 735 mmHg 67%
    02:00 +18°C° 0 mm 0 mps 734 mmHg 69%
    03:00 +19°C° 0 mm 1 mps 734 mmHg 70%
    04:00 +19°C° 0 mm 1 mps 734 mmHg 71%
    05:00 +19°C° 0 mm 1 mps 734 mmHg 75%
    06:00 +21°C° 0 mm 1 mps 735 mmHg 70%
    07:00 +22°C° 0 mm 1 mps 736 mmHg 64%
    08:00 +24°C° 0 mm 1 mps 737 mmHg 58%
    09:00 +26°C° 0 mm 1 mps 736 mmHg 51%
    10:00 +29°C° 0 mm 1 mps 736 mmHg 44%
    11:00 +31°C° 0 mm 1 mps 736 mmHg 37%
    12:00 +32°C° 0 mm 1 mps 735 mmHg 35%
    13:00 +32°C° 0 mm 1 mps 734 mmHg 33%
    14:00 +33°C° 0 mm 1 mps 733 mmHg 30%
    15:00 +32°C° 0 mm 1 mps 733 mmHg 34%
    16:00 +30°C° 0 mm 1 mps 733 mmHg 37%
    17:00 +29°C° 0 mm 2 mps 733 mmHg 40%
    18:00 +28°C° 0 mm 1 mps 733 mmHg 44%
    19:00 +26°C° 0 mm 1 mps 733 mmHg 47%
    20:00 +25°C° 0 mm 1 mps 734 mmHg 50%
    21:00 +24°C° 0 mm 1 mps 734 mmHg 53%
    22:00 +24°C° 0 mm 1 mps 733 mmHg 55%
    23:00 +23°C° 0 mm 1 mps 733 mmHg 57%

    Tomorrow, 23 January, Thursday

    Time Temperature Precipitation Wind Pressure Humidity
    00:00 +23°C° 0 mm 1 mps 733 mmHg 58%
    01:00 +23°C° 0 mm 1 mps 733 mmHg 59%
    02:00 +22°C° 0 mm 1 mps 733 mmHg 60%
    03:00 +22°C° 0 mm 1 mps 733 mmHg 61%
    04:00 +22°C° 0 mm 1 mps 733 mmHg 62%
    05:00 +21°C° 0 mm 1 mps 733 mmHg 64%
    06:00 +20°C° 0 mm 0 mps 733 mmHg 60%
    07:00 +22°C° 0 mm 0 mps 734 mmHg 57%
    08:00 +23°C° 0 mm 0 mps 735 mmHg 53%
    09:00 +27°C° 0 mm 1 mps 735 mmHg 49%
    10:00 +29°C° 0 mm 1 mps 734 mmHg 44%
    11:00 +30°C° 0 mm 2 mps 734 mmHg 40%
    12:00 +31°C° 0 mm 2 mps 733 mmHg 38%
    13:00 +33°C° 0 mm 3 mps 733 mmHg 35%
    14:00 +34°C° 0 mm 3 mps 732 mmHg 33%
    15:00 +31°C° 0 mm 3 mps 732 mmHg 36%
    16:00 +30°C° 0 mm 2 mps 731 mmHg 39%
    17:00 +29°C° 0 mm 2 mps 731 mmHg 42%
    18:00 +28°C° 0 mm 2 mps 732 mmHg 45%
    19:00 +27°C° 0 mm 2 mps 733 mmHg 48%
    20:00 +25°C° 0 mm 2 mps 733 mmHg 52%
    21:00 +24°C° 0 mm 2 mps 733 mmHg 54%
    22:00 +24°C° 0 mm 2 mps 733 mmHg 56%
    23:00 +23°C° 0 mm 2 mps 733 mmHg 59%

    Day after tomorrow, 24 January, Friday

    Time Temperature Precipitation Wind Pressure Humidity
    00:00 +21°C° 0 mm 2 mps 733 mmHg 59%
    01:00 +20°C° 0 mm 2 mps 733 mmHg 58%
    02:00 +20°C° 0 mm 1 mps 732 mmHg 58%
    03:00 +20°C° 0 mm 1 mps 732 mmHg 58%
    04:00 +19°C° 0 mm 1 mps 733 mmHg 57%
    05:00 +19°C° 0 mm 1 mps 733 mmHg 57%
    06:00 +20°C° 0 mm 1 mps 733 mmHg 52%
    07:00 +20°C° 0 mm 2 mps 734 mmHg 48%
    08:00 +21°C° 0 mm 2 mps 735 mmHg 43%
    09:00 +24°C° 0 mm 2 mps 735 mmHg 39%
    10:00 +26°C° 0 mm 2 mps 734 mmHg 35%
    11:00 +28°C° 0 mm 2 mps 734 mmHg 32%
    12:00 +29°C° 0 mm 2 mps 733 mmHg 31%
    13:00 +30°C° 0 mm 2 mps 733 mmHg 31%
    14:00 +31°C° 0 mm 2 mps 732 mmHg 31%
    15:00 +30°C° 0 mm 2 mps 732 mmHg 33%
    16:00 +29°C° 0 mm 1 mps 732 mmHg 35%
    17:00 +28°C° 0 mm 1 mps 731 mmHg 38%
    18:00 +26°C° 0 mm 1 mps 732 mmHg 39%
    19:00 +25°C° 0 mm 1 mps 732 mmHg 39%
    20:00 +23°C° 0 mm 1 mps 733 mmHg 40%
    21:00 +23°C° 0 mm 1 mps 733 mmHg 39%
    22:00 +22°C° 0 mm 1 mps 733 mmHg 38%
    23:00 +21°C° 0 mm 1 mps 733 mmHg 37%

    25 January, Saturday

    Time Temperature Precipitation Wind Pressure Humidity
    00:00 +20°C° 0 mm 1 mps 733 mmHg 36%
    01:00 +20°C° 0 mm 1 mps 732 mmHg 35%
    02:00 +19°C° 0 mm 1 mps 732 mmHg 34%
    03:00 +17°C° 0 mm 2 mps 732 mmHg 34%
    04:00 +17°C° 0 mm 2 mps 732 mmHg 34%
    05:00 +16°C° 0 mm 2 mps 732 mmHg 34%
    06:00 +17°C° 0 mm 2 mps 733 mmHg 33%
    07:00 +18°C° 0 mm 2 mps 733 mmHg 32%
    08:00 +20°C° 0 mm 2 mps 734 mmHg 31%
    09:00 +23°C° 0 mm 2 mps 734 mmHg 28%
    10:00 +25°C° 0 mm 2 mps 734 mmHg 25%
    11:00 +28°C° 0 mm 2 mps 734 mmHg 22%
    12:00 +29°C° 0 mm 2 mps 733 mmHg 21%
    13:00 +30°C° 0 mm 2 mps 732 mmHg 21%
    14:00 +31°C° 0 mm 3 mps 731 mmHg 20%
    15:00 +29°C° 0 mm 2 mps 731 mmHg 23%
    16:00 +28°C° 0 mm 1 mps 731 mmHg 25%
    17:00 +26°C° 0 mm 1 mps 731 mmHg 28%
    18:00 +25°C° 0 mm 1 mps 731 mmHg 29%
    19:00 +23°C° 0 mm 1 mps 732 mmHg 31%
    20:00 +19°C° 0 mm 0 mps 732 mmHg 33%
    21:00 +19°C° 0 mm 0 mps 732 mmHg 34%
    22:00 +18°C° 0 mm 0 mps 732 mmHg 35%
    23:00 +17°C° 0 mm 0 mps 732 mmHg 36%

    26 January, Sunday

    Time Temperature Precipitation Wind Pressure Humidity
    00:00 +17°C° 0 mm 0 mps 732 mmHg 36%
    01:00 +18°C° 0 mm 1 mps 731 mmHg 36%
    02:00 +18°C° 0 mm 1 mps 731 mmHg 36%
    03:00 +16°C° 0 mm 1 mps 731 mmHg 37%
    04:00 +16°C° 0 mm 1 mps 731 mmHg 37%
    05:00 +15°C° 0 mm 1 mps 731 mmHg 38%
    06:00 +18°C° 0 mm 1 mps 732 mmHg 36%
    07:00 +19°C° 0 mm 1 mps 732 mmHg 33%
    08:00 +20°C° 0 mm 1 mps 733 mmHg 31%
    09:00 +23°C° 0 mm 2 mps 733 mmHg 27%
    10:00 +26°C° 0 mm 2 mps 733 mmHg 23%
    11:00 +28°C° 0 mm 2 mps 733 mmHg 19%
    12:00 +29°C° 0 mm 2 mps 732 mmHg 18%
    13:00 +30°C° 0 mm 2 mps 731 mmHg 17%
    14:00 +32°C° 0 mm 1 mps 730 mmHg 16%
    15:00 +30°C° 0 mm 1 mps 730 mmHg 18%
    16:00 +28°C° 0 mm 2 mps 730 mmHg 21%
    17:00 +27°C° 0 mm 2 mps 730 mmHg 23%
    18:00 +25°C° 0 mm 1 mps 731 mmHg 25%
    19:00 +24°C° 0 mm 1 mps 731 mmHg 26%
    20:00 +22°C° 0 mm 1 mps 731 mmHg 27%
    21:00 +21°C° 0 mm 1 mps 731 mmHg 28%
    22:00 +21°C° 0 mm 1 mps 731 mmHg 30%
    23:00 +20°C° 0 mm 1 mps 731 mmHg 31%

    27 January, Monday

    Time Temperature Precipitation Wind Pressure Humidity
    00:00 +20°C° 0 mm 1 mps 730 mmHg 32%
    01:00 +19°C° 0 mm 1 mps 730 mmHg 33%
    02:00 +19°C° 0 mm 1 mps 729 mmHg 35%
    03:00 +18°C° 0 mm 1 mps 729 mmHg 35%
    04:00 +18°C° 0 mm 1 mps 730 mmHg 36%
    05:00 +18°C° 0 mm 1 mps 730 mmHg 37%
    06:00 +19°C° 0 mm 1 mps 730 mmHg 35%
    07:00 +21°C° 0 mm 1 mps 731 mmHg 34%
    08:00 +22°C° 0 mm 1 mps 732 mmHg 32%
    09:00 +25°C° 0 mm 1 mps 731 mmHg 28%
    10:00 +28°C° 0 mm 1 mps 731 mmHg 25%
    11:00 +31°C° 0 mm 1 mps 731 mmHg 21%
    12:00 +32°C° 0 mm 1 mps 730 mmHg 22%
    13:00 +33°C° 0 mm 1 mps 729 mmHg 23%
    14:00 +34°C° 0 mm 2 mps 728 mmHg 24%
    15:00 +32°C° 0 mm 1 mps 728 mmHg 28%
    16:00 +31°C° 0 mm 1 mps 728 mmHg 31%
    17:00 +30°C° 0 mm 1 mps 728 mmHg 35%
    18:00 +28°C° 0 mm 2 mps 728 mmHg 35%
    19:00 +27°C° 0 mm 2 mps 729 mmHg 35%
    20:00 +26°C° 0 mm 2 mps 729 mmHg 35%
    21:00 +25°C° 0 mm 2 mps 729 mmHg 36%
    22:00 +24°C° 0 mm 2 mps 729 mmHg 38%
    23:00 +23°C° 0 mm 2 mps 729 mmHg 39%
    Show more